sat.trackr.live / text

‹ back to catalog

STARLINK-37645

NORAD 69371 · 2026-123U

PAYLOAD ACTIVE UNKNOWN

§ Identity

Operator
Country
US
Launch date
2026-06-04
Launch site
AFETR
Launch vehicle
Mass (kg)
RCS (m²)

Purposes: comms

External: N2YO · Heavens-Above · Gunter

§ Orbital elements

Epoch: 2026-09-20T01:53:54.304800Z

Period
93.85 min
Inclination
53.1580°
Eccentricity
0.0001058
Mean motion
15.34418426 rev/d
Perigee alt
461.9 km
Apogee alt
463.4 km
Semi-major
6,840.8 km
B*
5.0582e-4
RAAN
143.8046°
Arg perigee
96.6425°
Mean anomaly
263.4698°
Rev number
1,680

§ Raw data

STARLINK-376451 69371U 26123U   26263.07910075  .00016762  00000+0  50582-3 0  99922 69371  53.1580 143.8046 0001058  96.6425 263.4698 15.34418426 16803

JSON: /api/v1/satellites/69371 · /tle

For live sub-satellite position, see the globe view (requires WebGL).

§ Visibility from observer

Set your observer location to see the next 7 days of passes ≥ 10°. The values pass through the URL so the page stays shareable.

No JS? Fill the form by hand. The geolocation button needs JavaScript.